Starlink 31419

operational
NORAD ID: 59368 Int'l Des: 2024-060 Owner: SPXS Country: US Constellation: starlink
LEOCIRCULAR

About Starlink 31419

Description loading...

Live Position

Loading 3D Globe...

Upcoming Passes

Altitude History

Altitude vs Time

uPlot chart will show altitude changes over time

Two-Line Element Set

1 59368U 24060W 25305.92236506 -.00000878 00000-0 -22400-4 0 9998
2 59368 43.0017 261.3157 0000497 178.0061 182.0793 15.27574351 90522
Epoch: Nov 1, 2025 • Age: 49 hours

Current Status

Altitude 486.3 km
Velocity 7.63 km/s
Sub-Earth Point 43.04°N, 56.23°W
Launch Date Mar 31, 2024
Age 1.5 years
Type internet

Technical Details

Classification Payload
Mass 730.00 kg
Dry Mass 700.00 kg
Total Mass 730.00 kg
Length 0.30 m
Diameter 4.10 m
Span 29.00 m
Shape Box + pan
Manufacturer SPXS
Bus Type Starlink V2M
Phase Status In Orbit
Owner/State SPXS/US

Large Constellations

Loading constellations...